Terminal Aerodrome Forecast
Issued by NWS Charleston, WV

Current Version | Previous Version | Graphics & Text | Print | Product List | Glossary On
Versions: 1 2 3 4 5 6 7 8 9 10 11 12 13 14 15 16 17 18 19 20 21 22 23 24 25 26
000
FTUS41 KRLX 300500
TAFPKB
TAF
KPKB 300538Z 3006/3106 28008G13KT 2SM -SN BR OVC008
     FM300800 30007KT 4SM -SN BR OVC010
     FM301300 30008G14KT P6SM OVC025
     FM310400 31004KT P6SM BKN120=

USA.gov is the U.S. government's official web portal to all federal, state and local government web resources and services.